{"data":{"norad_id":57728,"intl_designator":"2023-130B","name":"YAOGAN-39 01B","alt_names":[],"object_type":"PAYLOAD","status":"ACTIVE","operator":null,"country":"PRC","launch_date":"2023-08-31","launch_site_code":"XICLF","launch_vehicle":null,"mission":null,"orbit_class":"UNKNOWN","rcs_meters":null,"size_class":null,"mass_kg":null,"dimensions":null,"purposes":[],"wikipedia_slug":null,"has_3d_model":false,"image_url":null,"decayed_at":null,"tle_current":{"epoch":"2026-05-24T21:08:52.941120Z","epoch_age_seconds":88363,"freshness":"FRESH","line1":"1 57728U 23130B   26144.88116830  .00005213  00000+0  26641-3 0  9992","line2":"2 57728  34.9948 297.1791 0009642 236.4632 123.5160 15.16022034151943","mean_motion":15.16022034,"eccentricity":0.0009642,"inclination_deg":34.9948,"raan_deg":297.1791,"arg_perigee_deg":236.4632,"mean_anomaly_deg":123.516,"bstar":0.00026641,"rev_number":15194,"period_min":94.985426841098,"perigee_km":511.22835835883,"apogee_km":524.52663271202,"semimajor_km":6896.0144955354,"source":"CELESTRAK","updated_at":"2026-05-25T13:38:00.223588Z"}}}